Location: Opava
(49.9500°N, 17.9170°E)
Time: 09:08:08
(UTC+01:00)

ISS - Visible Passes

Search period start: 19 January 2019 00:00
Search period end: 29 January 2019 00:00
Orbit: 404 x 411 km, 51.6° (Epoch: 19 January)

Date Brightness Start Highest point End Pass type
(mag) Time Alt. Az. Time Alt. Az. Time Alt. Az.
23 Jan -1.9 18:39:19 10° SSW 18:40:56 21° S 18:40:56 21° S visible
24 Jan -2.0 17:48:38 10° S 17:50:58 18° SE 17:51:51 16° ESE visible
24 Jan -0.9 19:23:47 10° WSW 19:24:35 16° WSW 19:24:35 16° WSW visible
25 Jan -3.3 18:32:31 10° SW 18:35:26 48° S 18:35:26 48° S visible
26 Jan -2.8 17:41:24 10° SW 17:44:24 33° SSE 17:46:13 19° E visible
26 Jan -1.4 19:17:28 10° W 19:18:57 24° W 19:18:57 24° W visible
27 Jan -4.0 18:26:01 10° WSW 18:29:20 83° SSE 18:29:40 69° E visible
28 Jan -3.6 17:34:39 10° SW 17:37:55 60° SSE 17:40:21 16° E visible
28 Jan -1.9 19:11:12 10° W 19:13:04 30° WNW 19:13:04 30° WNW visible
